Location: Three Forks Visitor's Center
(58.3672°N, 155.3776°W)
Time: 12:26:30
(UTC-08:00)

OTV 5 (USA 277) - Visible Passes

Search period start: 22 April 2019 00:00
Search period end: 02 May 2019 00:00
Orbit: 309 x 326 km, 54.5° (Epoch: 21 April)

Date Brightness Start Highest point End Pass type
(mag) Time Alt. Az. Time Alt. Az. Time Alt. Az.
24 Apr ? 23:48:12 10° SSW 23:49:37 19° S 23:49:37 19° S visible
26 Apr ? 00:02:30 10° SW 00:04:49 28° S 00:04:49 28° S visible
27 Apr ? 00:16:59 10° WSW 00:19:31 34° S 00:19:31 34° S visible
27 Apr ? 22:57:50 10° SW 23:00:11 25° SSE 23:02:30 10° ESE visible
28 Apr ? 00:31:35 10° WSW 00:33:57 35° SSW 00:33:57 35° SSW visible
28 Apr ? 23:12:15 10° SW 23:14:44 32° S 23:17:14 10° ESE visible
29 Apr ? 00:46:14 10° WSW 00:48:13 29° SW 00:48:13 29° SW visible
29 Apr ? 23:26:47 10° WSW 23:29:20 35° S 23:31:29 13° ESE visible
30 Apr ? 01:00:58 10° WSW 01:02:22 20° SW 01:02:22 20° SW visible
30 Apr ? 23:41:24 10° WSW 23:43:56 34° S 23:45:34 17° SE visible
01 May ? 01:15:51 10° WSW 01:16:27 13° WSW 01:16:27 13° WSW visible
